Date String (YYYY-MM-DD hh:mm:ss) UTC,Instrument flags,absolute air pressure of the measurement (hPa),sample flow rate (lpm),inlet stack bypass flow (lpm),air temperature of the measurement (°C),ambient temperature measured by the external sensor (°C),aerosol sample conditioner tube jacket temperature (°C),OPC LED temperature (°C),internal box temperature (°C),relative humidity of the measurement (%),span deviation,mass concentration of particles derived from Lorenz-Mie calculation of OPC scattering (μg/m³),mass concentration of particles derived from Lorenz-Mie calculation of OPC scattering (μg/m³),mass concentration of particles derived from Lorenz-Mie calculation of OPC scattering (μg/m³)
DateTimeUTC,F1_M11,P_M11,Q1_M11,Q2_M11,T1_M11,T2_M11,T3_M11,T4_M11,T5_M11,U1_M11,ZSPAN_M11,X0_M11,X2_M11,X1_M11
2023-08-21 12:00:00,SystemResetWarning,0835.3,5.01,000.00,028.4,024.9,000.0,036.9,029.7,19.3,0002.0,0014.36,0006.32,0005.43
2023-08-21 12:01:00,SystemResetWarning,0835.1,5.00,000.00,028.4,025.3,000.0,036.9,029.8,19.2,0001.7,0014.28,0006.28,0005.43
2023-08-21 12:02:00,SystemResetWarning,0834.9,5.00,000.00,028.4,025.6,000.0,036.9,029.9,19.1,0000.9,0013.98,0006.28,0005.41
2023-08-21 12:03:00,SystemResetWarning,0835.0,4.99,000.00,028.4,026.0,000.0,036.9,029.9,19.1,0000.6,0013.88,0006.23,0005.40
2023-08-21 12:04:00,SystemResetWarning,0834.9,5.01,000.00,028.4,026.3,000.0,036.9,030.0,19.0,0000.6,0014.26,0006.19,0005.39
2023-08-21 12:05:00,SystemResetWarning,0835.0,5.00,000.00,028.4,026.5,000.0,036.9,030.0,18.9,0000.8,0013.74,0006.15,0005.38
2023-08-21 12:06:00,SystemResetWarning,0835.0,4.99,000.00,028.4,026.7,000.0,037.0,030.1,18.8,0000.7,0014.16,0006.20,0005.41
2023-08-21 12:07:00,SystemResetWarning,0835.0,4.99,000.00,028.5,026.9,000.0,037.0,030.1,18.7,0000.8,0014.39,0006.23,0005.46
2023-08-21 12:08:00,SystemResetWarning,0835.1,5.01,000.00,028.5,027.0,000.0,037.0,030.2,18.6,0001.0,0015.09,0006.21,0005.45
2023-08-21 12:09:00,SystemResetWarning,0835.1,5.01,000.00,028.5,027.2,000.0,037.0,030.2,18.7,0001.2,0015.08,0006.24,0005.46
2023-08-21 12:10:00,SystemResetWarning,0835.1,5.00,000.00,028.5,027.3,000.0,037.0,030.2,18.9,0001.5,0014.35,0006.28,0005.46
2023-08-21 12:11:00,SystemResetWarning,0835.1,4.99,000.00,028.6,027.4,000.0,037.0,030.3,18.8,0002.0,0013.44,0006.27,0005.43
2023-08-21 12:12:00,SystemResetWarning,0835.2,4.99,000.00,028.6,027.4,000.0,037.1,030.3,19.2,0002.1,0013.46,0006.25,0005.42
2023-08-21 12:13:00,SystemResetWarning,0835.2,4.99,000.00,028.6,027.5,000.0,037.1,030.3,19.2,0002.6,0013.32,0006.21,0005.40
2023-08-21 12:14:00,SystemResetWarning,0835.3,5.00,000.00,028.7,027.6,000.0,037.1,030.4,19.2,0002.9,0013.18,0006.18,0005.37
2023-08-21 12:15:00,SystemResetWarning,0835.3,5.00,000.00,028.7,027.6,000.0,037.1,030.4,19.3,0002.9,0012.74,0006.21,0005.35
2023-08-21 12:16:00,SystemResetWarning,0835.2,4.99,000.00,028.7,027.3,000.0,037.1,030.4,18.9,0002.8,0012.75,0006.23,0005.36
2023-08-21 12:17:00,SystemResetWarning,0835.2,5.00,000.00,028.7,025.4,000.0,037.0,030.1,18.8,0003.0,0012.84,0006.21,0005.34
2023-08-21 12:18:00,SystemResetWarning,0835.2,5.00,000.00,028.6,023.7,000.0,036.9,029.8,18.9,0003.2,0012.79,0006.16,0005.26
2023-08-21 12:19:00,SystemResetWarning,0835.3,5.01,000.00,028.5,023.5,000.0,036.8,029.5,19.2,0003.3,0012.39,0006.16,0005.23
2023-08-21 12:20:00,SystemResetWarning,0835.3,5.01,000.00,028.3,023.8,000.0,036.8,029.3,19.7,0003.2,0012.00,0006.09,0005.18
2023-08-21 12:21:00,SystemResetWarning,0835.3,5.00,000.00,028.2,024.3,000.0,036.8,029.4,20.2,0003.1,0012.55,0006.04,0005.15
2023-08-21 12:22:00,SystemResetWarning,0835.3,5.00,000.00,028.2,024.8,000.0,036.8,029.5,21.1,0003.1,0013.24,0006.01,0005.14
2023-08-21 12:23:00,SystemResetWarning,0835.2,5.00,000.00,028.2,025.2,000.0,036.8,029.6,21.6,0003.3,0013.12,0005.97,0005.11
2023-08-21 12:24:00,SystemResetWarning,0835.2,5.00,000.00,028.2,025.6,000.0,036.8,029.7,21.4,0003.0,0013.25,0005.97,0005.08
2023-08-21 12:25:00,SystemResetWarning,0835.2,5.00,000.00,028.2,025.9,000.0,036.8,029.8,22.1,0002.6,0013.54,0005.98,0005.06
2023-08-21 12:26:00,SystemResetWarning,0835.3,5.01,000.00,028.2,026.2,000.0,036.8,029.8,23.2,0002.7,0013.67,0005.97,0005.04
2023-08-21 12:27:00,SystemResetWarning,0835.3,4.99,000.00,028.2,026.4,000.0,036.8,029.9,25.3,0002.8,0014.01,0005.96,0004.99
2023-08-21 12:28:00,SystemResetWarning,0835.3,4.99,000.00,028.3,026.6,000.0,036.8,029.9,26.2,0002.5,0013.97,0005.90,0004.96
2023-08-21 12:29:00,SystemResetWarning,0835.4,5.00,000.00,028.3,026.8,000.0,036.8,030.0,26.5,0002.3,0013.61,0005.91,0004.96
2023-08-21 12:30:00,SystemResetWarning,0835.3,5.01,000.00,028.3,026.9,000.0,036.8,030.0,24.5,0002.3,0013.46,0005.90,0004.98
2023-08-21 12:31:00,SystemResetWarning,0835.4,5.01,000.00,028.4,027.0,000.0,036.8,030.0,21.5,0002.3,0013.54,0005.96,0005.02
2023-08-21 12:32:00,SystemResetWarning,0835.3,4.99,000.00,028.4,027.1,000.0,036.9,030.1,20.9,0002.2,0013.19,0005.98,0005.03
2023-08-21 12:33:00,SystemResetWarning,0835.4,5.00,000.00,028.4,027.2,000.0,036.9,030.1,19.0,0002.2,0012.54,0006.01,0005.05
2023-08-21 12:34:00,SystemResetWarning,0835.4,5.01,000.00,028.4,027.3,000.0,036.9,030.2,19.2,0001.7,0012.57,0006.02,0005.07
2023-08-21 12:35:00,SystemResetWarning,0835.4,5.01,000.00,028.5,027.3,000.0,036.9,030.2,21.0,0001.8,0012.82,0006.04,0005.08
2023-08-21 12:36:00,SystemResetWarning,0835.3,4.99,000.00,028.5,027.4,000.0,036.9,030.2,21.5,0002.0,0013.35,0006.04,0005.11
2023-08-21 12:37:00,SystemResetWarning,0835.3,5.00,000.00,028.5,027.4,000.0,037.0,030.2,22.0,0002.0,0013.39,0006.01,0005.10
2023-08-21 12:38:00,SystemResetWarning,0835.4,5.00,000.00,028.6,027.5,000.0,037.0,030.3,21.7,0001.3,0012.96,0005.94,0005.10
2023-08-21 12:39:00,SystemResetWarning,0835.5,5.00,000.00,028.6,027.5,000.0,037.0,030.3,21.8,0000.8,0012.62,0005.93,0005.09
2023-08-21 12:40:00,SystemResetWarning,0835.5,5.00,000.00,028.6,027.6,000.0,037.0,030.4,21.1,0000.6,0012.69,0005.89,0005.07
2023-08-21 12:41:00,SystemResetWarning,0835.4,5.00,000.00,028.7,027.6,000.0,037.1,030.4,20.8,0000.3,0013.11,0005.86,0005.04
2023-08-21 12:42:00,SystemResetWarning,0835.4,5.01,000.00,028.7,027.6,000.0,037.1,030.4,21.0,0000.6,0013.05,0005.80,0005.02
2023-08-21 12:43:00,SystemResetWarning,0835.4,4.98,000.00,028.7,026.8,000.0,037.0,030.3,20.8,-000.2,0013.61,0005.81,0005.03
2023-08-21 12:44:00,SystemResetWarning,0835.3,5.00,000.00,028.7,025.1,000.0,036.9,030.0,21.0,-000.4,0013.50,0005.79,0005.04
2023-08-21 12:45:00,SystemResetWarning,0835.3,5.02,000.00,028.6,024.7,000.0,036.9,029.8,20.7,-000.0,0012.91,0005.80,0005.04
2023-08-21 12:46:00,SystemResetWarning,0835.4,4.98,000.00,028.4,024.9,000.0,036.9,029.7,20.7,0000.3,0012.77,0005.86,0005.05
2023-08-21 12:47:00,SystemResetWarning,0835.5,4.99,000.00,028.4,025.2,000.0,036.9,029.7,20.5,0000.4,0011.83,0005.86,0005.05
2023-08-21 12:48:00,SystemResetWarning,0835.5,5.00,000.00,028.4,025.6,000.0,036.9,029.8,20.5,0000.6,0011.44,0005.83,0005.07
2023-08-21 12:49:00,SystemResetWarning,0835.5,5.01,000.00,028.4,025.9,000.0,036.9,029.9,20.7,0001.1,0012.42,0005.88,0005.09
2023-08-21 12:50:00,SystemResetWarning,0835.5,5.01,000.00,028.4,026.2,000.0,036.9,030.0,20.8,0001.6,0013.31,0005.92,0005.14
2023-08-21 12:51:00,SystemResetWarning,0835.5,5.00,000.00,028.4,026.5,000.0,036.9,030.0,20.8,0001.6,0013.68,0005.97,0005.16
2023-08-21 12:52:00,SystemResetWarning,0835.4,4.99,000.00,028.4,026.7,000.0,036.9,030.1,21.1,0001.9,0013.10,0006.04,0005.23
2023-08-21 12:53:00,SystemResetWarning,0835.4,4.99,000.00,028.5,026.9,000.0,037.0,030.1,21.1,0002.0,0013.21,0006.14,0005.31
2023-08-21 12:54:00,SystemResetWarning,0835.4,5.00,000.00,028.5,027.0,000.0,037.0,030.2,21.3,0002.6,0012.91,0006.21,0005.38
2023-08-21 12:55:00,SystemResetWarning,0835.4,5.00,000.00,028.5,027.1,000.0,037.0,030.2,21.2,0002.6,0013.10,0006.31,0005.47
2023-08-21 12:56:00,SystemResetWarning,0835.4,5.00,000.00,028.5,027.3,000.0,037.0,030.2,21.0,0002.8,0013.40,0006.47,0005.62
2023-08-21 12:57:00,SystemResetWarning,0835.5,5.00,000.00,028.6,027.4,000.0,037.0,030.3,20.4,0002.7,0013.64,0006.63,0005.83
2023-08-21 12:58:00,SystemResetWarning,0835.4,5.01,000.00,028.6,027.4,000.0,037.0,030.3,20.0,0003.0,0014.24,0006.89,0006.07
2023-08-21 12:59:00,SystemResetWarning,0835.4,5.00,000.00,028.6,027.5,000.0,037.1,030.4,19.8,0003.1,0015.10,0007.16,0006.33
